星链-4663 (STARLINK-4663 )

导读 | 豆包AI

STARLINK-4663是美国SpaceX公司星链(Starlink)卫星互联网项目中的一颗卫星,于2022年9月5日发射。它属于星链低轨星座组网卫星,运行在约550公里高度的近地轨道,单星重量约297千克,由猎鹰9号火箭搭载发射。星链项目旨在为全球提供高速低延迟宽带互联网服务,该卫星是SpaceX大规模星座部署中的组成部分,助力拓展全球覆盖范围,目前已在轨正常运行,参与卫星互联网服务的组网工作。

Basic Information
目录编号:
53724
目录名称:
STARLINK-4663
国际标识:
2022-107AA
轨道中心:
EARTH
卫星名称:
星链-4663
卫星全名:
星链-4663 (STARLINK-4663 )
卫星状态:
在轨 (已飞行1287 天)
发射日期:
2022-09-05 UTC
国别 :
美国 (US)
星等 :
--
Orbit Information
数据来源 国际轨道数据 AOE轨道数据
星历时间 2026-03-15T04:06:16+0800
13小时前
查看轨道信息
2026-03-13T10:00:00+0800
2天前
查看轨道信息
半长轴 6917.875km 6917.898km
偏心率 0.0001217 0.0001243
轨道倾角 53.217° 53.216°
近地点辐角 93.404° 77.466°
升交点赤经 230.808° 238.684°
平近点角 266.709° 108.100°
近地点 538.896km 538.901km
远地点 540.58km 540.621km
周期 95.437分钟 95.438分钟
每日圈数 15.088418 15.088344
Detailed Information
固有亮度:
5
最大亮度:
2.5
卫星平台:
Starlink v1.5
覆盖范围:
全球
运营商:
太空探索技术公司
运营商所在国:
美国
制造商(研发单位):
太空探索技术公司
制造商所在国:
美国
使用方式:
暂无
Satellite Introduction
星链(Starlink)计划是由太空探索技术公司(SpaceX)提出的一个巨型低轨卫星互联网星座项目,计划在2019年至2024年间在太空搭建由约1.2万颗卫星组成的“星链”网络,其中1584颗将部署在地球上空550千米处的近地轨道,并从2020年开始工作。该卫星仍在工作。
2D Orbit Map
3D Orbit Map
Orbit Altitude Analysis Chart
Orbit Inclination Analysis Chart
Orbit Comprehensive Analysis Chart
View Comprehensive Chart